Kodiak, AK

1:46 PM AKDT on August 17, 2017 (GMT -0800)
Kodiak

Weather History for PADQ - August, 2013

Change the Weather History Date:

Tuesday, August 27, 2013

  Actual Average Record
Temperature  
Mean Temperature 61 °F 54 °F  
Max Temperature 67 °F 61 °F 81 °F (1930)
Min Temperature 55 °F 48 °F 35 °F (1998)
Degree Days  
Heating Degree Days 4 11  
Month to date heating degree days 231 259  
Since 1 June heating degree days 773 1046  
Since 1 July heating degree days 442 585  
Cooling Degree Days 0    
Month to date cooling degree days 0  
Year to date cooling degree days 6  
Since 1 June cooling degree days 6  
Growing Degree Days 10 (Base 50)    
Moisture  
Dew Point 48 °F    
Average Humidity 0    
Maximum Humidity 0    
Minimum Humidity 0    
Precipitation  
Precipitation 0.00 in 0.17 in 2.25 in (1988)
Month to date precipitation 6.71 3.88  
Year to date precipitation 37.32 46.11  
Snow  
Snow 0.00 in 0.00 in 0.00 in (2016)
Month to date snowfall 0.0 0.0  
Since 1 June snowfall 0.0 0.0  
Since 1 July snowfall 0.0 0.0  
Snow Depth 0.00 in    
Sea Level Pressure  
Sea Level Pressure 29.81 in    
Wind  
Wind Speed 7 mph (NW)    
Max Wind Speed 16 mph    
Max Gust Speed 20 mph    
Visibility 10 miles    
Events      
T = Trace of Precipitation, MM = Missing Value Source: NWS Daily Summary

Daily Weather History Graph

Daily Weather History Graph

Search for Another Location

Airport or City:

Trip Planner

Search our weather history database for the weather conditions in past years. The results will help you decide how hot, cold, wet, or windy it might be!

Date:

Astronomy

Aug. 27, 2013 Rise Set
Actual Time 7:00 AM AKDT 9:20 PM AKDT
Civil Twilight 6:18 AM AKDT 10:02 PM AKDT
Nautical Twilight 5:22 AM AKDT 10:57 PM AKDT
Astronomical Twilight 4:12 AM AKDT 12:06 AM AKDT
Moon 11:43 PM AKDT (8/27) 3:45 PM AKDT (8/27)
Length of Visible Light 15h 44m
Length of Day
14h 19m
Waning Gibbous, 55% of the Moon is Illuminated
Aug 27
Waning Gibbous
Aug 28
Last Quarter
Sep 5
New
Sep 12
First Quarter
Sep 19
Full

Hourly Weather History & Observations

Time (AKDT) Temp. Dew Point Humidity Pressure Visibility Wind Dir Wind Speed Gust Speed Precip Events Conditions
12:53 AM 55.9 °F 48.9 °F 77% 29.76 in 10.0 mi NW 8.1 mph - N/A   Overcast
1:53 AM 55.9 °F 48.0 °F 75% 29.77 in 10.0 mi NW 10.4 mph - N/A   Overcast
2:53 AM 55.9 °F 48.0 °F 75% 29.77 in 10.0 mi NW 9.2 mph - N/A   Overcast
3:53 AM 57.0 °F 48.0 °F 72% 29.78 in 10.0 mi WNW 10.4 mph - N/A   Overcast
4:53 AM 57.0 °F 48.0 °F 72% 29.79 in 10.0 mi NW 8.1 mph - N/A   Overcast
5:53 AM 57.0 °F 48.0 °F 72% 29.80 in 10.0 mi WNW 11.5 mph 19.6 mph N/A   Overcast
6:53 AM 55.9 °F 48.0 °F 75% 29.81 in 10.0 mi WNW 15.0 mph - N/A   Overcast
7:53 AM 55.9 °F 48.0 °F 75% 29.82 in 10.0 mi WNW 6.9 mph - N/A   Overcast
8:53 AM 57.0 °F 46.9 °F 69% 29.81 in 10.0 mi NW 8.1 mph - N/A   Mostly Cloudy
9:53 AM 59.0 °F 46.9 °F 64% 29.82 in 10.0 mi WNW 9.2 mph - N/A   Mostly Cloudy
10:53 AM 61.0 °F 48.0 °F 62% 29.82 in 10.0 mi WNW 12.7 mph - N/A   Mostly Cloudy
11:53 AM 63.0 °F 46.9 °F 56% 29.83 in 10.0 mi WNW 13.8 mph - N/A   Mostly Cloudy
12:53 PM 64.0 °F 45.0 °F 50% 29.84 in 10.0 mi WNW 10.4 mph - N/A   Mostly Cloudy
1:53 PM 64.9 °F 46.0 °F 50% 29.84 in 10.0 mi NW 5.8 mph - N/A   Mostly Cloudy
2:53 PM 66.0 °F 46.9 °F 50% 29.83 in 10.0 mi Variable 4.6 mph - N/A   Mostly Cloudy
3:53 PM 61.0 °F 48.0 °F 62% 29.83 in 10.0 mi East 5.8 mph - N/A   Mostly Cloudy
4:53 PM 62.1 °F 46.9 °F 58% 29.84 in 10.0 mi Calm Calm - N/A   Mostly Cloudy
5:53 PM 61.0 °F 46.9 °F 60% 29.84 in 10.0 mi NE 3.5 mph - N/A   Overcast
6:53 PM 59.0 °F 48.9 °F 69% 29.83 in 10.0 mi East 3.5 mph - N/A   Overcast
7:53 PM 59.0 °F 48.0 °F 67% 29.83 in 10.0 mi Calm Calm - N/A   Overcast
8:53 PM 59.0 °F 50.0 °F 72% 29.82 in 10.0 mi NW 5.8 mph - N/A   Overcast
9:53 PM 59.0 °F 50.0 °F 72% 29.82 in 10.0 mi Calm Calm - N/A   Overcast
10:53 PM 57.9 °F 50.0 °F 75% 29.82 in 10.0 mi NNW 5.8 mph - N/A   Overcast
11:53 PM 57.0 °F 48.9 °F 74% 29.82 in 10.0 mi North 3.5 mph - N/A   Overcast